Location: Gbana
(4.8333°N, 11.5000°E)
Time: 06:47:40
(UTC+00:00)

Daily predictions for brighter satellites

Satellite Brightness Start Highest point End
(mag) Time Altitude Azimuth Time Altitude Azimuth Time Altitude Azimuth
ARIANE 5 R/B 4.1 17:09:09 10° WSW 17:12:17 34° S 17:18:41 10° ESE
Meteor 2-21 4.4 17:07:07 10° N 17:13:11 77° E 17:19:13 10° S
CZ-4 R/B 3.2 17:17:12 10° E 17:18:04 11° ENE 17:18:55 10° ENE
CZ-2C R/B 3.3 17:16:55 10° S 17:19:39 16° SE 17:22:18 10° ESE
Meteor 2-1 Rocket 4.2 17:23:42 10° S 17:29:15 67° E 17:34:42 10° NNE
CZ-2C R/B 4.0 17:29:56 10° ENE 17:33:21 17° E 17:36:43 10° SE
Cosmos 1697 Rocket 3.9 17:29:21 10° SW 17:34:39 44° WNW 17:39:57 10° N
IRS-1C Rocket 4.3 17:31:14 10° SSE 17:36:13 45° ENE 17:41:12 10° N
CZ-2D R/B 4.0 17:33:36 10° SE 17:36:59 30° ENE 17:40:21 10° NNE
Ariane H10+ 4.0 17:29:30 10° WSW 17:38:05 36° S 17:41:43 10° ESE
USA 276 2.3 17:35:08 10° NNW 17:38:13 49° NE 17:41:20 10° SE
Cosmos 967 Rocket 4.5 17:32:26 10° SSW 17:38:51 72° ESE 17:45:14 10° NNE
Cosmos 2058 4.4 17:41:34 16° E 17:41:34 16° E 17:43:51 10° SE
Ariane H10+ 2.5 17:38:29 10° W 17:42:05 65° S 17:51:37 12° ESE
Meteor 2-16 Rocket 4.4 17:36:07 10° N 17:42:13 86° E 17:48:20 10° S
Cosmos 1892 3.7 17:39:15 10° NNE 17:42:27 25° E 17:45:39 10° SE
NOAA 11 4.3 17:38:04 10° S 17:43:34 82° W 17:49:00 10° NNW
Cosmos 1315 Rocket 3.0 17:40:26 10° SSW 17:44:18 70° W 17:48:12 10° N
Hubble Space Telescope 2.1 17:46:28 10° NNW 17:49:44 22° NNE 17:50:50 20° NE
Cosmos 1244 Rocket 4.5 17:43:38 10° N 17:49:54 83° E 17:56:15 10° S
Cosmos 1953 Rocket 4.4 17:49:05 10° NNW 17:53:24 54° W 17:57:47 10° S
EO 1 Delta rocket 4.4 17:49:25 10° NNE 17:53:45 38° E 17:58:38 10° SSE
SWIFT 3.7 17:52:00 10° NW 17:55:28 24° NNE 17:56:37 21° NE
Cosmos 1980 Rocket 2.7 17:51:43 10° SSW 17:57:18 60° WNW 18:02:50 10° N
Cosmos 883 Rocket 4.4 17:52:26 10° S 17:58:39 71° E 18:04:46 10° N
Cosmos 2315 Rocket 4.0 17:56:31 10° S 18:02:39 59° E 18:08:43 10° NNE
CRYOSAT 2 4.2 17:58:51 10° N 18:03:42 81° E 18:08:34 10° S
YAOGAN 1 2.5 18:07:35 10° SSE 18:11:49 55° ENE 18:16:01 10° N
Gbstr 26 Del rocket 4.4 18:05:49 10° NNW 18:13:26 77° NE 18:21:36 10° SE
CZ-3B R/B 3.6 17:52:41 10° SSW 18:13:28 56° SE 18:15:59 34° ENE
Cosmos-2242 2.8 18:11:37 10° S 18:15:50 70° E 18:17:31 35° NNE
Cosmos 1340 3.2 18:12:22 10° NNW 18:16:04 57° W 18:19:46 10° S
GPS 2-12 Rocket1 3.9 18:14:14 10° NW 18:18:01 31° NNE 18:18:01 31° NNE
Cosmos 2297 Rocket 2.5 18:15:23 10° N 18:20:17 42° ENE 18:20:17 42° ENE
CZ-2C R/B 3.2 18:15:23 10° SSE 18:21:08 72° ENE 18:26:55 10° N
In-Cosmos 22 Rocket 4.5 18:17:36 10° NNW 18:23:03 68° W 18:28:40 10° S
NOAA 15 4.5 18:22:47 10° SSE 18:28:05 88° ENE 18:33:23 10° NNW
Cosmos 2322 Rocket 2.7 18:23:46 10° S 18:28:14 39° SE 18:28:14 39° SE
Helios 1A Rocket 4.4 18:32:16 10° S 18:36:05 37° WSW 18:39:54 10° NW
Timation 2 Rocket 4.3 18:32:43 10° NNW 18:39:30 74° WSW 18:46:22 10° S
Okean-O 4.1 18:39:40 10° SSW 18:43:44 36° WSW 18:47:48 10° NW
Cosmos 2219 3.2 18:45:16 10° NNW 18:51:00 80° WSW 18:56:43 10° SSE
CZ-4 R/B 3.6 18:49:30 10° SSW 18:52:49 25° WSW 18:56:04 10° NW
BREEZE-M DEB (TANK) 3.2 18:43:39 10° SW 18:52:23 71° SSW 18:52:23 71° SSW
H-2A R/B 2.3 18:48:45 10° S 18:58:52 13° NNW 18:59:21 10° NNW
Meteor 1-27 4.5 18:49:25 10° S 18:53:54 58° S 18:53:54 58° S
CZ-2C R/B 3.2 18:55:12 10° WSW 18:57:26 29° WSW 18:57:26 29° WSW
ATLAS 3B CENTAUR R/B 3.9 18:54:11 10° SSW 19:00:29 41° SE 19:00:38 41° SE
CSL-04 Rocket 4.0 18:57:44 10° S 19:07:42 16° NNW 19:08:42 10° NNW
SL-16 R/B 2.6 18:59:15 10° SSW 19:04:35 58° W 19:04:35 58° W
CZ-2C R/B 4.3 19:11:03 21° NW 19:13:24 30° WNW 19:17:56 10° SW
ARIANE 5 R/B 4.3 19:17:26 10° W 19:56:02 45° SSW 19:56:06 45° SSW
